Flag for Germany Weather past 2 weeks in Soltau, Lower Saxony, Germany

Now
54 °F

Passing clouds.


Feels Like: 51 °F
Forecast: 45 / 64 °F
Wind: 8 mph from West

Location: Fassberg

Current Time: May 6, 2015 at 12:29:15 AM

Latest Report: May 5, 2015 at 11:20 PM


Visibility: N/A

Pressure: 29.80 "Hg

Humidity: 63%

Dew point: 41 °F

Location of SoltauLocation

Historic Weather in Soltau — Graph

°F

Soltau temperature yesterday

Maximum temperature yesterday: 77 °F (at 4:48 PM)
Minimum temperature yesterday: 52 °F (at 12:20 AM)
Average temperature yesterday: 63 °F

Past Weeks' High & Low Weather Summary

 TemperatureHumidityPressure
High77 °F (May 5, 4:48 PM)100% (Apr 23, 4:20 AM)30.39 "Hg (Apr 23, 4:20 AM)
Low28 °F (May 2, 4:20 AM)27% (Apr 21, 5:20 PM)29.47 "Hg (May 5, 3:20 PM)
Average50 °F73%29.89 "Hg
* Reported Apr 20 10:20 PM — May 5 10:20 PM, Soltau, Weather by CustomWeather, © 2015

Note: Actual official high and low records may vary slightly from our data, if they occured in-between our weather recording intervals... More about our weather records

Advertising

Soltau weather history for previous 24 hours

 ConditionsComfort  
Time TempWeatherWind HumidityBarometerVisibility
10:20 PM
Tue, May 5
55 °FPassing clouds.10 mph67%29.77 "HgN/A
9:20 PM57 °FScattered clouds.10 mph72%29.74 "HgN/A
8:20 PM59 °FPassing clouds.17 mph72%29.68 "HgN/A
7:20 PM61 °FScattered clouds.12 mph88%29.65 "HgN/A
6:20 PM63 °FBroken clouds.15 mph83%29.62 "HgN/A
5:45 PM64 °FSprinkles. Partly sunny.21 mph78%29.59 "Hg5 mi
5:20 PM68 °FThundershowers. Scattered clouds.20 mph78%29.53 "HgN/A
5:01 PM68 °FThunderstorms. Scattered clouds.21 mph56%29.50 "Hg5 mi
4:48 PM77 °FThundershowers. Scattered clouds.18 mph42%29.47 "HgN/A
4:20 PM75 °FThunderstorms. Scattered clouds.14 mph50%29.47 "HgN/A
3:20 PM75 °FPassing clouds.16 mph57%29.47 "HgN/A
2:20 PM68 °FScattered clouds.12 mph83%29.50 "HgN/A
1:48 PM63 °FSprinkles. Broken clouds.13 mph88%29.56 "Hg5 mi
1:20 PM64 °FRain showers. Broken clouds.13 mph88%29.53 "Hg5 mi
12:20 PM64 °FLight rain. Partly sunny.10 mph88%29.53 "HgN/A
11:20 AM66 °FSprinkles. Broken clouds.13 mph78%29.53 "Hg5 mi
10:20 AM70 °FBroken clouds.12 mph64%29.50 "HgN/A
9:20 AM66 °FPartly sunny.14 mph73%29.50 "HgN/A
8:20 AM61 °FScattered clouds.9 mph88%29.50 "HgN/A
7:20 AM59 °FScattered clouds.12 mph88%29.50 "HgN/A
6:20 AM57 °FRain. Passing clouds.7 mph88%29.53 "Hg4 mi
5:20 AM57 °FLight rain. Partly cloudy.8 mph82%29.56 "HgN/A
4:20 AM59 °FPartly cloudy.7 mph72%29.59 "HgN/A
3:20 AM57 °FPassing clouds.8 mph77%29.62 "HgN/A
2:20 AM57 °FPassing clouds.9 mph77%29.65 "HgN/A
1:20 AM55 °FPassing clouds.8 mph82%29.68 "HgN/A
12:20 AM52 °FPassing clouds.8 mph88%29.71 "HgN/A
Weather by CustomWeather, © 2015

See weather overviewHow to use our weather pages